User: anonymous   Login
Location: Newark
(55.7816°N, 8.2389°E)
Time: 04:03:59
(UTC+00:00)
Language:

UNISAT 6 - Orbit

View from above orbital plane
View from above orbital plane
View from above satellite
View from above satellite

Ground track
Ground track

The orbit data is extracted from the following two-line orbital elements,

1 40012U 14033C   20058.42176491 +.00000126 +00000-0 +26159-4 0  9993
2 40012 097.7253 278.6175 0058346 000.3355 359.7883 14.74072724306066
Epoch (UTC): 27 February 2020 10:07:20
Eccentricity: 0.0058346
inclination: 97.7253°
perigee height: 607 km
apogee height: 689 km
right ascension of ascending node: 278.6175°
argument of perigee: 0.3355°
revolutions per day: 14.74072724
mean anomaly at epoch: 359.7883°
orbit number at epoch: 30606

The dashed part of the orbit path shows where the satellite is in the earth's shadow,  

DLR